Wind From: 11-12-2017 06:00 Until: 12-12-2017 06:00 warning for: Wind Level: Orange info button

Power and phone distribution networks may be disrupted for relatively long periods., Roofs and chimneys can be damaged. , Tree branches may break. , Vehicles can be deported. , Traffic may be disrupted, particularly on secondary roads in forest areas. Limit your trips. , Limit your speed in highway driving, especially if you drive a vehicle or hitch sensitive to wind. , Do not go for walks in forests or along the coast., In town, be vigilant against possible falling objects., Do not work on roofs and do not touch any electrical line fallen on the ground., Store or secure sensitive objects to wind or likely to be damaged., Always install power generators outside buildings. 


Meteo18 Weather Cam more information Meteo18 Weather Cam


Thunder radar more information blitzortung!


Rain radar more information rain snow radar


Visit our other weather sites:

Template documentation
and downloads

And another site



Weather Underground History page Text

Daily Summary for February 9, 2016 Units:  Metric    English   Both
« Previous Day
Next Day »
Daily Weekly Monthly Yearly Custom
  High: Low: Average:
Temperature: 11.6 °C 2.8 °C 7.8 °C
Dew Point: 10.0 °C 1.0 °C 6.2 °C
Humidity: 96 % 76 % 90 %
Wind Speed: 30.6 km/h 0.0 km/h 9.4 km/h
Wind Gust: 41.8 km/h - -
Wind:- - SW
Pressure: 1009.7 hPa 990.7 hPa -
Precipitation: 14.5 mm    
Historical Graphs
 
 
Tabular Data for February 9, 2016
Time Temperature Dew Point Pressure Wind Wind Speed Wind Gust Humidity Rainfall Rate (Hourly)
00:02 7.9 °C 6.5 °C 1009.4 hPa SW 6.4 km/h 14.5 km/h 91 % 0.0 mm
00:07 7.9 °C 6.7 °C 1009.7 hPa SW 9.7 km/h 17.7 km/h 92 % 0.0 mm
00:17 7.7 °C 6.6 °C 1009.4 hPa SW 6.4 km/h 14.5 km/h 93 % 0.3 mm
00:22 7.7 °C 6.6 °C 1009.4 hPa WSW 1.6 km/h 14.5 km/h 93 % 0.3 mm
00:32 7.7 °C 6.8 °C 1009.4 hPa ESE 4.8 km/h 11.3 km/h 94 % 0.5 mm
00:37 7.8 °C 6.9 °C 1009.4 hPa SW 6.4 km/h 12.9 km/h 94 % 0.8 mm
00:42 7.9 °C 7.0 °C 1009.4 hPa SW 4.8 km/h 12.9 km/h 94 % 0.8 mm
00:47 7.9 °C 7.0 °C 1009.4 hPa SSW 8.0 km/h 16.1 km/h 94 % 0.8 mm
00:52 7.8 °C 6.9 °C 1009.4 hPa WSW 1.6 km/h 16.1 km/h 94 % 0.8 mm
01:02 7.8 °C 6.9 °C 1009.4 hPa SW 4.8 km/h 16.1 km/h 94 % 0.8 mm
01:07 7.8 °C 6.9 °C 1009.4 hPa SSE 4.8 km/h 14.5 km/h 94 % 0.8 mm
01:12 7.8 °C 6.7 °C 1009.4 hPa WSW 3.2 km/h 12.9 km/h 93 % 0.5 mm
01:17 7.8 °C 6.9 °C 1009.0 hPa West 1.6 km/h 12.9 km/h 94 % 0.5 mm
01:22 7.8 °C 6.9 °C 1009.0 hPa WSW 4.8 km/h 11.3 km/h 94 % 0.5 mm
01:27 7.8 °C 6.9 °C 1009.0 hPa WSW 3.2 km/h 11.3 km/h 94 % 0.5 mm
01:32 7.9 °C 6.8 °C 1008.7 hPa WSW 1.6 km/h 19.3 km/h 93 % 0.3 mm
01:37 7.9 °C 6.8 °C 1008.4 hPa SSW 6.4 km/h 19.3 km/h 93 % 0.0 mm
01:42 8.1 °C 6.9 °C 1008.4 hPa WSW 16.1 km/h 20.9 km/h 92 % 0.0 mm
01:47 8.2 °C 7.0 °C 1008.4 hPa SW 11.3 km/h 20.9 km/h 92 % 0.0 mm
01:52 8.2 °C 6.8 °C 1008.4 hPa WNW 3.2 km/h 20.9 km/h 91 % 0.0 mm
01:57 8.3 °C 6.9 °C 1008.4 hPa WSW 8.0 km/h 20.9 km/h 91 % 0.0 mm
02:02 8.3 °C 6.9 °C 1008.0 hPa WSW 6.4 km/h 20.9 km/h 91 % 0.0 mm
02:07 8.3 °C 6.9 °C 1008.4 hPa Calm   20.9 km/h 91 % 0.0 mm
02:12 8.2 °C 7.0 °C 1008.4 hPa South 4.8 km/h 14.5 km/h 92 % 0.0 mm
02:17 8.2 °C 7.0 °C 1008.0 hPa West 4.8 km/h 14.5 km/h 92 % 0.0 mm
02:22 8.2 °C 6.8 °C 1008.4 hPa WSW 4.8 km/h 11.3 km/h 91 % 0.0 mm
02:27 8.3 °C 6.9 °C 1008.4 hPa WSW 4.8 km/h 12.9 km/h 91 % 0.0 mm
02:32 8.3 °C 6.9 °C 1008.4 hPa WSW 1.6 km/h 12.9 km/h 91 % 0.0 mm
02:37 8.3 °C 6.9 °C 1008.0 hPa WSW 8.0 km/h 11.3 km/h 91 % 0.0 mm
02:42 8.3 °C 7.1 °C 1008.0 hPa SSE 6.4 km/h 14.5 km/h 92 % 0.0 mm
02:47 8.2 °C 7.0 °C 1008.0 hPa SW 4.8 km/h 14.5 km/h 92 % 0.0 mm
02:52 8.2 °C 7.1 °C 1008.4 hPa SW 4.8 km/h 11.3 km/h 93 % 0.0 mm
02:57 8.1 °C 7.2 °C 1008.4 hPa SW 6.4 km/h 12.9 km/h 94 % 0.5 mm
03:02 8.2 °C 7.4 °C 1008.0 hPa WSW 3.2 km/h 12.9 km/h 95 % 0.5 mm
03:07 8.2 °C 7.4 °C 1007.7 hPa ESE 3.2 km/h 14.5 km/h 95 % 0.5 mm
03:12 8.2 °C 7.4 °C 1008.0 hPa Calm   14.5 km/h 95 % 0.5 mm
03:17 8.2 °C 7.4 °C 1007.7 hPa SW 6.4 km/h 12.9 km/h 95 % 0.5 mm
03:22 8.2 °C 7.4 °C 1007.3 hPa SSE 3.2 km/h 12.9 km/h 95 % 0.5 mm
03:32 8.2 °C 7.4 °C 1007.3 hPa WSW 4.8 km/h 14.5 km/h 95 % 0.5 mm
03:37 8.1 °C 7.3 °C 1007.3 hPa WSW 6.4 km/h 11.3 km/h 95 % 0.5 mm
03:42 8.2 °C 7.4 °C 1007.0 hPa WSW 4.8 km/h 11.3 km/h 95 % 0.5 mm
03:52 8.1 °C 7.5 °C 1006.7 hPa SSW 6.4 km/h 11.3 km/h 96 % 0.8 mm
03:57 8.1 °C 7.5 °C 1006.7 hPa SW 3.2 km/h 9.7 km/h 96 % 0.5 mm
04:02 8.1 °C 7.5 °C 1006.3 hPa SW 6.4 km/h 14.5 km/h 96 % 0.5 mm
04:07 8.2 °C 7.4 °C 1006.3 hPa SW 6.4 km/h 14.5 km/h 95 % 0.5 mm
04:12 8.2 °C 7.4 °C 1006.0 hPa SW 1.6 km/h 12.9 km/h 95 % 0.5 mm
04:17 8.2 °C 7.4 °C 1005.6 hPa West 9.7 km/h 12.9 km/h 95 % 0.5 mm
04:22 8.3 °C 7.5 °C 1005.6 hPa SW 8.0 km/h 12.9 km/h 95 % 0.5 mm
04:27 8.3 °C 7.5 °C 1005.6 hPa WSW 4.8 km/h 12.9 km/h 95 % 0.5 mm
04:32 8.3 °C 7.5 °C 1005.3 hPa WSW 1.6 km/h 11.3 km/h 95 % 0.5 mm
04:37 8.3 °C 7.5 °C 1005.3 hPa SW 9.7 km/h 11.3 km/h 95 % 0.5 mm
04:42 8.2 °C 7.4 °C 1005.0 hPa SSE 4.8 km/h 9.7 km/h 95 % 0.5 mm
04:47 8.2 °C 7.4 °C 1005.0 hPa SE 1.6 km/h 12.9 km/h 95 % 0.5 mm
04:52 8.1 °C 7.3 °C 1005.0 hPa WSW 4.8 km/h 12.9 km/h 95 % 0.5 mm
04:57 8.2 °C 7.6 °C 1004.6 hPa WSW 1.6 km/h 8.0 km/h 96 % 0.5 mm
05:02 8.2 °C 7.6 °C 1004.3 hPa SW 3.2 km/h 8.0 km/h 96 % 0.8 mm
05:07 8.1 °C 7.5 °C 1004.3 hPa South 3.2 km/h 8.0 km/h 96 % 0.8 mm
05:12 8.2 °C 7.6 °C 1003.9 hPa WSW 3.2 km/h 8.0 km/h 96 % 1.0 mm
05:17 8.1 °C 7.5 °C 1003.9 hPa SW 1.6 km/h 6.4 km/h 96 % 1.0 mm
05:22 8.1 °C 7.5 °C 1003.9 hPa WSW 6.4 km/h 6.4 km/h 96 % 1.0 mm
05:32 8.2 °C 7.6 °C 1003.9 hPa SW 4.8 km/h 8.0 km/h 96 % 1.0 mm
05:37 8.2 °C 7.6 °C 1003.6 hPa SSW 4.8 km/h 11.3 km/h 96 % 1.0 mm
05:42 8.2 °C 7.6 °C 1003.3 hPa South 3.2 km/h 11.3 km/h 96 % 1.0 mm
05:47 8.2 °C 7.6 °C 1002.9 hPa WSW 8.0 km/h 11.3 km/h 96 % 1.0 mm
05:52 8.2 °C 7.6 °C 1002.9 hPa SW 9.7 km/h 11.3 km/h 96 % 0.8 mm
05:57 8.2 °C 7.6 °C 1002.9 hPa SSW 4.8 km/h 11.3 km/h 96 % 0.5 mm
06:02 8.2 °C 7.6 °C 1002.6 hPa SW 8.0 km/h 11.3 km/h 96 % 0.5 mm
06:12 8.2 °C 7.6 °C 1002.3 hPa SW 4.8 km/h 16.1 km/h 96 % 0.3 mm
06:17 8.2 °C 7.6 °C 1001.9 hPa SW 8.0 km/h 16.1 km/h 96 % 0.3 mm
06:27 8.2 °C 7.4 °C 1001.2 hPa SW 6.4 km/h 14.5 km/h 95 % 0.3 mm
06:32 8.2 °C 7.4 °C 1001.2 hPa SSW 11.3 km/h 16.1 km/h 95 % 0.3 mm
06:37 8.3 °C 7.5 °C 1001.2 hPa SSE 8.0 km/h 16.1 km/h 95 % 0.3 mm
06:42 8.3 °C 7.5 °C 1000.9 hPa WSW 9.7 km/h 16.1 km/h 95 % 0.0 mm
06:47 8.3 °C 7.5 °C 1000.6 hPa West 6.4 km/h 16.1 km/h 95 % 0.0 mm
06:52 8.4 °C 7.5 °C 1000.6 hPa South 9.7 km/h 16.1 km/h 94 % 0.0 mm
06:57 8.4 °C 7.5 °C 1000.6 hPa South 9.7 km/h 16.1 km/h 94 % 0.0 mm
07:02 8.6 °C 7.7 °C 1000.6 hPa WSW 4.8 km/h 16.1 km/h 94 % 0.0 mm
07:07 8.6 °C 7.7 °C 1000.2 hPa SW 9.7 km/h 16.1 km/h 94 % 0.0 mm
07:12 8.7 °C 7.6 °C 999.9 hPa ESE 9.7 km/h 16.1 km/h 93 % 0.0 mm
07:17 8.7 °C 7.6 °C 999.9 hPa WSW 11.3 km/h 17.7 km/h 93 % 0.0 mm
07:22 8.8 °C 7.7 °C 999.5 hPa WSW 6.4 km/h 17.7 km/h 93 % 0.0 mm
07:27 8.8 °C 7.7 °C 999.2 hPa SW 8.0 km/h 17.7 km/h 93 % 0.0 mm
07:32 8.9 °C 7.8 °C 999.2 hPa South 8.0 km/h 17.7 km/h 93 % 0.0 mm
07:37 9.0 °C 7.9 °C 998.9 hPa SSE 3.2 km/h 16.1 km/h 93 % 0.0 mm
07:42 9.1 °C 8.0 °C 998.9 hPa South 11.3 km/h 19.3 km/h 93 % 0.0 mm
07:47 9.2 °C 8.1 °C 998.5 hPa SE 8.0 km/h 19.3 km/h 93 % 0.0 mm
07:52 9.2 °C 8.1 °C 998.5 hPa SE 4.8 km/h 19.3 km/h 93 % 0.0 mm
07:57 9.3 °C 8.2 °C 998.5 hPa SW 11.3 km/h 22.5 km/h 93 % 0.3 mm
08:02 9.4 °C 8.5 °C 998.5 hPa SW 12.9 km/h 22.5 km/h 94 % 0.5 mm
08:07 9.4 °C 8.5 °C 998.5 hPa SW 11.3 km/h 22.5 km/h 94 % 0.5 mm
08:12 9.5 °C 8.6 °C 998.2 hPa SW 12.9 km/h 22.5 km/h 94 % 0.5 mm
08:22 9.7 °C 8.8 °C 997.9 hPa SW 20.9 km/h 25.7 km/h 94 % 0.8 mm
08:27 9.7 °C 8.8 °C 997.9 hPa SW 30.6 km/h 30.6 km/h 94 % 1.0 mm
08:32 9.8 °C 8.9 °C 997.5 hPa SW 14.5 km/h 30.6 km/h 94 % 1.0 mm
08:37 9.8 °C 8.7 °C 997.5 hPa SSW 14.5 km/h 30.6 km/h 93 % 1.0 mm
08:42 9.8 °C 8.7 °C 997.2 hPa West 9.7 km/h 30.6 km/h 93 % 1.0 mm
08:47 9.9 °C 8.8 °C 996.8 hPa South 20.9 km/h 29.0 km/h 93 % 1.0 mm
08:52 9.9 °C 8.8 °C 996.8 hPa SSW 17.7 km/h 29.0 km/h 93 % 1.0 mm
08:57 10.0 °C 8.8 °C 996.8 hPa East 17.7 km/h 29.0 km/h 92 % 0.8 mm
09:02 10.0 °C 8.9 °C 996.5 hPa SW 19.3 km/h 29.0 km/h 93 % 0.5 mm
09:07 10.1 °C 8.9 °C 996.2 hPa WSW 12.9 km/h 29.0 km/h 92 % 0.5 mm
09:12 10.0 °C 8.9 °C 996.2 hPa WSW 14.5 km/h 29.0 km/h 93 % 0.5 mm
09:17 10.0 °C 8.9 °C 996.2 hPa SSW 16.1 km/h 29.0 km/h 93 % 0.3 mm
09:22 10.0 °C 8.9 °C 996.2 hPa SW 19.3 km/h 27.4 km/h 93 % 0.5 mm
09:27 10.0 °C 8.9 °C 995.8 hPa WSW 20.9 km/h 27.4 km/h 93 % 0.3 mm
09:32 10.0 °C 8.9 °C 995.8 hPa WSW 17.7 km/h 27.4 km/h 93 % 0.3 mm
09:42 10.0 °C 9.1 °C 995.5 hPa SW 17.7 km/h 29.0 km/h 94 % 0.3 mm
09:52 9.8 °C 9.0 °C 995.5 hPa SW 14.5 km/h 25.7 km/h 95 % 0.3 mm
09:57 9.9 °C 9.1 °C 995.1 hPa West 8.0 km/h 25.7 km/h 95 % 0.5 mm
10:02 9.9 °C 9.1 °C 995.1 hPa SSW 8.0 km/h 22.5 km/h 95 % 0.5 mm
10:07 9.9 °C 9.1 °C 994.8 hPa WSW 4.8 km/h 22.5 km/h 95 % 0.5 mm
10:12 9.9 °C 9.1 °C 994.5 hPa SW 16.1 km/h 20.9 km/h 95 % 0.5 mm
10:17 10.1 °C 9.3 °C 994.1 hPa SW 9.7 km/h 22.5 km/h 95 % 0.5 mm
10:22 10.1 °C 9.3 °C 994.1 hPa SSW 17.7 km/h 22.5 km/h 95 % 0.3 mm
10:32 10.3 °C 9.4 °C 993.8 hPa WSW 16.1 km/h 27.4 km/h 94 % 0.5 mm
10:37 10.5 °C 9.6 °C 993.8 hPa SE 16.1 km/h 29.0 km/h 94 % 0.5 mm
10:42 10.6 °C 9.5 °C 993.5 hPa WSW 14.5 km/h 29.0 km/h 93 % 0.5 mm
10:47 10.7 °C 9.6 °C 993.5 hPa ENE 19.3 km/h 29.0 km/h 93 % 0.5 mm
10:52 10.7 °C 9.6 °C 993.5 hPa WSW 11.3 km/h 27.4 km/h 93 % 0.5 mm
10:57 10.8 °C 9.6 °C 993.1 hPa SW 24.1 km/h 32.2 km/h 92 % 0.3 mm
11:02 10.8 °C 9.6 °C 992.8 hPa SW 20.9 km/h 35.4 km/h 92 % 0.3 mm
11:07 10.8 °C 9.6 °C 992.8 hPa SSW 20.9 km/h 35.4 km/h 92 % 0.3 mm
11:12 10.9 °C 9.7 °C 992.4 hPa SW 20.9 km/h 35.4 km/h 92 % 0.3 mm
11:17 11.0 °C 9.6 °C 992.4 hPa WSW 12.9 km/h 40.2 km/h 91 % 0.3 mm
11:22 11.1 °C 9.5 °C 992.4 hPa SW 19.3 km/h 40.2 km/h 90 % 0.0 mm
11:27 11.2 °C 9.6 °C 992.1 hPa SW 24.1 km/h 40.2 km/h 90 % 0.0 mm
11:32 11.3 °C 9.7 °C 992.4 hPa WSW 14.5 km/h 38.6 km/h 90 % 0.0 mm
11:42 11.3 °C 9.7 °C 992.1 hPa WSW 16.1 km/h 33.8 km/h 90 % 0.0 mm
11:47 11.3 °C 9.7 °C 991.8 hPa WSW 20.9 km/h 33.8 km/h 90 % 0.0 mm
11:52 11.4 °C 9.7 °C 992.1 hPa WSW 19.3 km/h 33.8 km/h 89 % 0.0 mm
11:57 11.6 °C 9.8 °C 992.4 hPa SW 20.9 km/h 35.4 km/h 89 % 0.0 mm
12:02 11.6 °C 9.7 °C 992.4 hPa SSW 16.1 km/h 35.4 km/h 88 % 0.0 mm
12:12 11.4 °C 10.0 °C 992.4 hPa WSW 12.9 km/h 38.6 km/h 91 % 0.5 mm
12:17 11.1 °C 9.8 °C 992.1 hPa WSW 3.2 km/h 38.6 km/h 92 % 1.5 mm
12:22 11.1 °C 9.8 °C 991.8 hPa NW 4.8 km/h 38.6 km/h 92 % 1.8 mm
12:27 11.1 °C 10.0 °C 991.4 hPa SSW 17.7 km/h 29.0 km/h 93 % 2.3 mm
12:32 11.1 °C 10.0 °C 991.1 hPa WSW 9.7 km/h 29.0 km/h 93 % 2.8 mm
12:37 11.1 °C 10.0 °C 991.1 hPa WSW 9.7 km/h 27.4 km/h 93 % 2.8 mm
12:42 11.1 °C 9.8 °C 990.7 hPa WSW 24.1 km/h 37.0 km/h 92 % 3.8 mm
12:52 10.8 °C 9.6 °C 991.1 hPa South 6.4 km/h 37.0 km/h 92 % 4.1 mm
12:57 10.7 °C 9.3 °C 990.7 hPa West 17.7 km/h 30.6 km/h 91 % 4.3 mm
13:02 10.7 °C 9.5 °C 991.1 hPa West 9.7 km/h 25.7 km/h 92 % 4.3 mm
13:17 11.1 °C 9.7 °C 990.7 hPa SSW 8.0 km/h -1607.4 km/h 91 % 2.5 mm
13:27 11.4 °C 8.4 °C 990.7 hPa SW 17.7 km/h 35.4 km/h 82 % 2.0 mm
13:32 11.5 °C 8.4 °C 991.1 hPa SW 22.5 km/h 35.4 km/h 81 % 1.5 mm
13:37 11.4 °C 8.3 °C 991.1 hPa SSW 24.1 km/h 41.8 km/h 81 % 1.5 mm
13:42 11.2 °C 8.4 °C 991.1 hPa West 4.8 km/h 41.8 km/h 83 % 0.5 mm
13:47 10.8 °C 8.7 °C 991.4 hPa SW 3.2 km/h 35.4 km/h 87 % 0.5 mm
13:52 10.3 °C 8.6 °C 991.4 hPa SE 8.0 km/h 32.2 km/h 89 % 0.8 mm
13:57 9.9 °C 8.3 °C 991.8 hPa SSW 22.5 km/h 22.5 km/h 90 % 1.5 mm
14:02 8.9 °C 6.0 °C 992.1 hPa SW 20.9 km/h 38.6 km/h 82 % 1.5 mm
14:07 8.4 °C 5.7 °C 992.1 hPa SSW 9.7 km/h 38.6 km/h 83 % 1.5 mm
14:12 8.4 °C 5.7 °C 992.1 hPa WSW 14.5 km/h 38.6 km/h 83 % 1.5 mm
14:17 8.7 °C 6.0 °C 992.1 hPa SW 8.0 km/h 29.0 km/h 83 % 1.5 mm
14:22 8.9 °C 6.0 °C 992.1 hPa SW 8.0 km/h 29.0 km/h 82 % 1.5 mm
14:27 9.0 °C 6.1 °C 992.1 hPa SW 11.3 km/h 22.5 km/h 82 % 1.5 mm
14:32 9.1 °C 6.0 °C 992.1 hPa SSW 12.9 km/h 22.5 km/h 81 % 1.5 mm
14:37 9.2 °C 5.9 °C 992.1 hPa SW 12.9 km/h 22.5 km/h 80 % 1.5 mm
14:47 9.3 °C 6.0 °C 992.4 hPa SW 9.7 km/h 20.9 km/h 80 % 1.5 mm
14:52 9.3 °C 5.8 °C 992.4 hPa SSW 16.1 km/h 27.4 km/h 79 % 0.8 mm
14:57 9.3 °C 6.0 °C 992.4 hPa SW 16.1 km/h 27.4 km/h 80 % 0.5 mm
15:02 9.3 °C 6.2 °C 992.4 hPa SSW 4.8 km/h 27.4 km/h 81 % 0.0 mm
15:17 9.3 °C 6.0 °C 992.4 hPa South 8.0 km/h 22.5 km/h 80 % 0.0 mm
15:22 9.2 °C 6.1 °C 992.4 hPa West 11.3 km/h 24.1 km/h 81 % 0.0 mm
15:27 9.2 °C 5.2 °C 992.4 hPa SSW 14.5 km/h 29.0 km/h 76 % 0.0 mm
15:32 9.1 °C 5.3 °C 992.1 hPa WSW 12.9 km/h 33.8 km/h 77 % 0.0 mm
15:42 8.9 °C 5.1 °C 992.4 hPa WSW 17.7 km/h 33.8 km/h 77 % 0.0 mm
15:47 8.8 °C 4.8 °C 992.4 hPa WSW 12.9 km/h 33.8 km/h 76 % 0.0 mm
15:57 7.1 °C 3.7 °C 993.8 hPa South 9.7 km/h 37.0 km/h 79 % 0.5 mm
16:02 5.8 °C 3.6 °C 993.1 hPa ESE 9.7 km/h 35.4 km/h 86 % 0.8 mm
16:07 5.6 °C 3.8 °C 993.1 hPa SW 11.3 km/h 35.4 km/h 88 % 1.0 mm
16:17 6.0 °C 4.0 °C 993.1 hPa SW 11.3 km/h 22.5 km/h 87 % 1.0 mm
16:27 6.5 °C 4.5 °C 993.8 hPa WSW 6.4 km/h 22.5 km/h 87 % 1.0 mm
16:32 6.7 °C 4.5 °C 993.5 hPa WSW 4.8 km/h 22.5 km/h 86 % 1.0 mm
16:37 6.6 °C 4.4 °C 993.5 hPa WSW 3.2 km/h 19.3 km/h 86 % 1.0 mm
16:42 6.6 °C 3.7 °C 993.5 hPa WSW 11.3 km/h 20.9 km/h 82 % 1.0 mm
16:47 6.8 °C 3.8 °C 993.8 hPa SW 6.4 km/h 25.7 km/h 81 % 1.0 mm
16:52 6.8 °C 3.6 °C 994.1 hPa WSW 3.2 km/h 25.7 km/h 80 % 1.0 mm
17:02 6.8 °C 3.4 °C 994.1 hPa WSW 3.2 km/h 25.7 km/h 79 % 0.0 mm
17:07 6.7 °C 3.1 °C 994.1 hPa WSW 3.2 km/h 22.5 km/h 78 % 0.0 mm
17:17 6.6 °C 2.9 °C 994.5 hPa WSW 4.8 km/h 25.7 km/h 77 % 0.0 mm
17:22 6.6 °C 2.7 °C 994.5 hPa South 4.8 km/h 25.7 km/h 76 % 0.0 mm
17:27 6.6 °C 2.9 °C 994.5 hPa WSW 3.2 km/h 19.3 km/h 77 % 0.0 mm
17:37 6.4 °C 3.0 °C 995.1 hPa South 6.4 km/h 17.7 km/h 79 % 0.0 mm
17:47 4.1 °C 2.3 °C 995.8 hPa SW 16.1 km/h 25.7 km/h 88 % 1.0 mm
17:52 3.6 °C 2.1 °C 995.8 hPa SSW 6.4 km/h 25.7 km/h 90 % 2.3 mm
18:02 2.8 °C 1.5 °C 995.5 hPa WSW 4.8 km/h 22.5 km/h 91 % 2.8 mm
18:12 2.8 °C 1.3 °C 995.8 hPa SW 4.8 km/h 16.1 km/h 90 % 2.8 mm
18:22 2.9 °C 1.3 °C 995.8 hPa SSW 4.8 km/h 17.7 km/h 89 % 2.8 mm
18:27 2.9 °C 1.3 °C 995.8 hPa SW 3.2 km/h 17.7 km/h 89 % 2.8 mm
18:37 2.9 °C 1.3 °C 996.2 hPa South 4.8 km/h 20.9 km/h 89 % 2.8 mm
18:42 2.9 °C 1.4 °C 996.2 hPa SW 4.8 km/h 20.9 km/h 90 % 2.3 mm
18:47 3.1 °C 1.6 °C 996.2 hPa SSW 4.8 km/h 16.1 km/h 90 % 1.0 mm
19:07 3.7 °C 1.7 °C 996.2 hPa SSW 3.2 km/h 24.1 km/h 87 % 0.0 mm
19:12 3.9 °C 1.8 °C 996.5 hPa SW 14.5 km/h 24.1 km/h 86 % 0.0 mm
19:17 4.0 °C 1.7 °C 996.2 hPa South 12.9 km/h 24.1 km/h 85 % 0.0 mm
19:22 4.0 °C 1.7 °C 996.5 hPa SW 8.0 km/h 24.1 km/h 85 % 0.0 mm
19:29 4.0 °C 1.5 °C 996.2 hPa WSW 14.5 km/h 24.1 km/h 84 % 0.0 mm
19:37 4.1 °C 1.6 °C 996.5 hPa SW 9.7 km/h 27.4 km/h 84 % 0.3 mm
19:42 4.1 °C 1.5 °C 996.5 hPa SSE 9.7 km/h 24.1 km/h 83 % 0.3 mm
19:52 4.3 °C 1.5 °C 996.5 hPa WSW 14.5 km/h 24.1 km/h 82 % 0.3 mm
19:57 4.3 °C 1.5 °C 996.8 hPa WSW 12.9 km/h 24.1 km/h 82 % 0.3 mm
20:07 4.3 °C 1.5 °C 996.8 hPa SW 11.3 km/h 25.7 km/h 82 % 0.3 mm
20:12 4.4 °C 1.6 °C 997.2 hPa SW 9.7 km/h 19.3 km/h 82 % 0.3 mm
20:17 4.4 °C 1.6 °C 996.8 hPa WSW 9.7 km/h 24.1 km/h 82 % 0.3 mm
20:27 4.4 °C 1.8 °C 997.2 hPa SW 6.4 km/h 24.1 km/h 83 % 0.3 mm
20:32 4.3 °C 1.8 °C 997.2 hPa West 8.0 km/h 19.3 km/h 84 % 0.0 mm
20:42 4.1 °C 1.8 °C 997.5 hPa SSW 9.7 km/h 22.5 km/h 85 % 0.0 mm
20:47 4.1 °C 1.8 °C 997.5 hPa SSW 4.8 km/h 22.5 km/h 85 % 0.0 mm
20:52 3.9 °C 1.6 °C 997.5 hPa SSW 12.9 km/h 22.5 km/h 85 % 0.0 mm
21:02 3.9 °C 1.8 °C 997.9 hPa SW 20.9 km/h 20.9 km/h 86 % 0.0 mm
21:12 3.8 °C 1.7 °C 997.9 hPa SW 9.7 km/h 20.9 km/h 86 % 0.0 mm
21:22 3.8 °C 1.5 °C 997.9 hPa SSW 4.8 km/h 20.9 km/h 85 % 0.0 mm
21:27 3.8 °C 1.7 °C 997.9 hPa SSE 11.3 km/h 22.5 km/h 86 % 0.0 mm
21:34 3.8 °C 1.7 °C 997.9 hPa SSW 14.5 km/h 22.5 km/h 86 % 0.0 mm
21:42 3.7 °C 1.6 °C 998.2 hPa SW 1.6 km/h 22.5 km/h 86 % 0.0 mm
21:47 3.7 °C 1.6 °C 998.2 hPa SW 9.7 km/h 22.5 km/h 86 % 0.0 mm
21:57 3.7 °C 1.6 °C 998.2 hPa SW 14.5 km/h 17.7 km/h 86 % 0.0 mm
22:07 3.7 °C 1.6 °C 998.5 hPa SW 6.4 km/h 27.4 km/h 86 % 0.0 mm
22:17 3.6 °C 1.6 °C 998.5 hPa SW 8.0 km/h 16.1 km/h 87 % 0.0 mm
22:27 3.6 °C 1.6 °C 998.9 hPa SW 1.6 km/h 16.1 km/h 87 % 0.0 mm
22:32 3.6 °C 1.5 °C 998.9 hPa WSW 6.4 km/h 17.7 km/h 86 % 0.0 mm
22:42 3.7 °C 1.6 °C 998.9 hPa SW 4.8 km/h 22.5 km/h 86 % 0.0 mm
22:52 3.7 °C 1.6 °C 998.9 hPa East 6.4 km/h 24.1 km/h 86 % 0.0 mm
22:57 3.7 °C 1.4 °C 999.2 hPa WSW 4.8 km/h 19.3 km/h 85 % 0.0 mm
23:07 3.6 °C 1.3 °C 999.2 hPa SSW 6.4 km/h 19.3 km/h 85 % 0.0 mm
23:12 3.5 °C 1.2 °C 999.5 hPa SW 4.8 km/h 19.3 km/h 85 % 0.0 mm
23:22 3.4 °C 1.1 °C 999.5 hPa SW 4.8 km/h 19.3 km/h 85 % 0.0 mm
23:27 3.4 °C 1.1 °C 999.5 hPa SSW 3.2 km/h 19.3 km/h 85 % 0.0 mm
23:37 3.5 °C 1.1 °C 999.9 hPa SSW 4.8 km/h 20.9 km/h 84 % 0.0 mm
23:42 3.5 °C 1.1 °C 999.9 hPa SW 9.7 km/h 19.3 km/h 84 % 0.0 mm
23:47 3.5 °C 1.1 °C 999.9 hPa SW 4.8 km/h 17.7 km/h 84 % 0.0 mm
23:52 3.4 °C 1.0 °C 1000.2 hPa South 3.2 km/h 16.1 km/h 84 % 0.0 mm
23:57 3.3 °C 1.0 °C 1000.2 hPa SW 3.2 km/h 17.7 km/h 85 % 0.0 mm
Meteo18
Compliments of Weather Underground - 4 mb

Script developed by  Jim McMurry - jmcmurry@mwt.net Adapted for the template by  Wim van der Kuil - Leuven-Template.eu

You find our weather info also at:

European Weather Network

Weather Underground

Equipment we use:

Weather-station
Davis Vue

Weather-program
Meteohub

Weather-server
Raspberry PI 2 B+

Provider
1 and 1

Davis Vue

Meteohub

Raspberry PI 2 B+

1 and 1